Torna al catalogo

CZ-4B R/B

AttivoSSO
NORAD 32063·ROCKET BODY·🇨🇳 China

Lanciato Sep 19, 2007 da Taiyuan Satellite Launch Center

Loading…

Prossimi Passaggi (prossime 24 ore)

TLE

AggiornatoSource: Space-Track

Epoca: Sep 14, 2026, 07:51 UTC

1 32063U 07042B   26257.32732994  .00000135  00000-0  43757-4 0  9997
2 32063  98.2180 199.9982 0053844 206.3733 313.5768 14.52488792  4972

Traccia CZ-4B R/B in tempo reale con AllMySat

Download on the App Store